Location: ???????
(60.4260°N, 46.9069°E)
Time: 18:41:51
(UTC+00:00)

Cosmos 494 Rocket - Pass Details

Date: 30 March 2020
Orbit: 742 x 771 km, 74.1° (Epoch: 05 June)

Event Time Altitude Azimuth Distance (km) Brightness Sun altitude
Rises 01:13:01 0° 326° (NNW) 3,239 7.2 -9.0°
Reaches altitude 10° 01:15:23 10° 326° (NW) 2,313 6.4 -8.7°
Maximum altitude 01:20:38 78° 241° (WSW) 792 4.0 -8.1°
Drops below altitude 10° 01:25:54 10° 156° (SSE) 2,313 6.5 -7.5°
Sets 01:28:16 0° 155° (SSE) 3,238 7.3 -7.3°
